Weather History for KPSM - June, 2013

Change the Weather History Date:

Friday, June 28, 2013

  Actual Average Record
Temperature  
Mean Temperature 67 °F -  
Max Temperature 79 °F 78 °F - (-1)
Min Temperature 55 °F 59 °F - (-1)
Cooling Degree Days 2    
Growing Degree Days 17 (Base 50)    
Moisture  
Dew Point 64 °F    
Average Humidity 96    
Maximum Humidity 100    
Minimum Humidity 76    
Precipitation  
Precipitation 0.40 in - - ()
Sea Level Pressure  
Sea Level Pressure 29.59 in    
Wind  
Wind Speed 8 mph (NNE)    
Max Wind Speed 13 mph    
Max Gust Speed 22 mph    
Visibility 3 miles    
Events Fog , Rain    
Averages and records for this station are not official NWS values.
T = Trace of Precipitation, MM = Missing Value Source: NWS Daily Summary

Daily Weather History Graph

Daily Weather History Graph

Search for Another Location

Airport or City:

Trip Planner

Search our weather history database for the weather conditions in past years. The results will help you decide how hot, cold, wet, or windy it might be!

Date:

Astronomy

Jun. 28, 2013 Rise Set
Actual Time 5:06 AM EDT 8:26 PM EDT
Civil Twilight 4:30 AM EDT 9:02 PM EDT
Nautical Twilight 3:45 AM EDT 9:47 PM EDT
Astronomical Twilight 2:48 AM EDT 10:44 PM EDT
Moon 11:43 PM EDT (6/28) 11:20 AM EDT (6/28)
Length of Visible Light 16h 31m
Length of Day
15h 20m
Waning Gibbous, 66% of the Moon is Illuminated
Jun 28
Waning Gibbous
Jun 30
Last Quarter
Jul 8
New
Jul 15
First Quarter
Jul 22
Full

Hourly Weather History & Observations

Time (EDT) Temp. Dew Point Humidity Pressure Visibility Wind Dir Wind Speed Gust Speed Precip Events Conditions
12:28 AM 57.2 °F 57.2 °F 100% 29.79 in 1.5 mi ENE 6.9 mph - N/A Rain Light Rain
12:58 AM 56.8 °F 56.7 °F 99% 29.79 in 2.0 mi NE 8.1 mph - 0.00 in   Overcast
1:43 AM 55.4 °F 55.4 °F 100% 29.76 in 3.0 mi NE 10.4 mph 18.4 mph N/A   Overcast
1:58 AM 55.9 °F 55.6 °F 99% 29.77 in 1.5 mi NE 8.1 mph - 0.01 in Rain Light Rain
2:58 AM 55.6 °F 55.2 °F 99% 29.74 in 1.0 mi NE 11.5 mph - 0.01 in Rain Light Rain
3:28 AM 55.4 °F 55.4 °F 100% 29.72 in 1.5 mi NE 10.4 mph - N/A Rain Light Rain
3:58 AM 55.2 °F 54.9 °F 99% 29.71 in 1.5 mi NE 10.4 mph - 0.12 in Rain Rain
4:13 AM 55.4 °F 55.4 °F 100% 29.68 in 5.0 mi ENE 12.7 mph 20.7 mph N/A Rain Light Rain
4:58 AM 55.9 °F 55.6 °F 99% 29.68 in 3.0 mi ENE 10.4 mph 17.3 mph 0.08 in Rain Light Rain
5:15 AM 57.2 °F 55.4 °F 94% 29.67 in 1.2 mi NE 10.4 mph - N/A   Overcast
5:58 AM 56.8 °F 56.5 °F 99% 29.68 in 1.2 mi NE 8.1 mph - 0.00 in Rain Light Rain
6:58 AM 57.2 °F 56.8 °F 99% 29.65 in 1.2 mi NE 8.1 mph - 0.01 in Rain Light Rain
7:43 AM 57.2 °F 57.2 °F 100% 29.63 in 1.2 mi NNE 6.9 mph - N/A   Overcast
7:58 AM 57.9 °F 57.6 °F 99% 29.64 in 1.2 mi NE 6.9 mph - 0.01 in   Overcast
8:28 AM 59.0 °F 59.0 °F 100% 29.60 in 0.8 mi NE 8.1 mph - N/A   Overcast
8:43 AM 59.0 °F 59.0 °F 100% 29.61 in 0.5 mi Variable 4.6 mph - N/A Fog Light Drizzle
8:58 AM 59.2 °F 58.8 °F 99% 29.61 in 1.0 mi NE 6.9 mph - 0.02 in Rain Light Rain
9:28 AM 59.0 °F 59.0 °F 100% 29.58 in 1.2 mi NE 6.9 mph - N/A Rain Rain
9:58 AM 60.6 °F 60.3 °F 99% 29.58 in 2.0 mi NE 5.8 mph - 0.13 in   Overcast
10:58 AM 63.0 °F 62.8 °F 99% 29.56 in 1.5 mi North 4.6 mph - N/A   Overcast
11:58 AM 66.2 °F 65.8 °F 99% 29.56 in 1.5 mi Variable 2.3 mph - N/A   Overcast
12:40 PM 69.8 °F 69.8 °F 100% 29.53 in 3.0 mi Calm Calm - N/A   Overcast
12:58 PM 73.2 °F 72.1 °F 96% 29.53 in 4.0 mi South 5.8 mph - N/A   Overcast
1:43 PM 77.0 °F 73.4 °F 89% 29.51 in 5.0 mi SSE 10.4 mph - N/A   Overcast
1:58 PM 77.9 °F 72.3 °F 83% 29.52 in 5.0 mi Variable 4.6 mph - N/A   Mostly Cloudy
2:37 PM 78.8 °F 71.6 °F 78% 29.50 in 7.0 mi SSE 12.7 mph - N/A   Mostly Cloudy
2:58 PM 79.0 °F 71.4 °F 78% 29.50 in 7.0 mi SSE 12.7 mph - N/A   Mostly Cloudy
3:58 PM 79.7 °F 71.4 °F 76% 29.49 in 7.0 mi NW 11.5 mph - N/A   Mostly Cloudy
4:43 PM 73.4 °F 69.8 °F 88% 29.49 in 7.0 mi NNW 12.7 mph 21.9 mph N/A   Overcast
4:58 PM 71.8 °F 68.5 °F 89% 29.50 in 7.0 mi North 10.4 mph - 0.00 in Rain Light Rain Showers
5:30 PM 73.4 °F 71.6 °F 94% 29.49 in 7.0 mi North 4.6 mph - N/A   Overcast
5:58 PM 73.8 °F 71.1 °F 91% 29.50 in 7.0 mi NW 10.4 mph - 0.01 in   Mostly Cloudy
6:58 PM 71.2 °F 69.6 °F 95% 29.52 in 7.0 mi NNW 5.8 mph - N/A   Mostly Cloudy
7:28 PM 69.8 °F 69.8 °F 100% 29.50 in 6.0 mi North 3.5 mph - N/A   Mostly Cloudy
7:51 PM 69.8 °F 68.0 °F 94% 29.49 in 5.0 mi Calm Calm - N/A   Mostly Cloudy
7:58 PM 70.0 °F 68.0 °F 93% 29.52 in 3.0 mi West 4.6 mph - N/A   Mostly Cloudy
8:28 PM 68.0 °F 66.2 °F 94% 29.52 in 2.0 mi WNW 5.8 mph - N/A   Mostly Cloudy
8:35 PM 66.2 °F 66.2 °F 100% 29.51 in 1.2 mi NW 4.6 mph - N/A   Overcast
8:43 PM 66.2 °F 66.2 °F 100% 29.51 in 1.0 mi NNW 5.8 mph - N/A   Overcast
8:58 PM 66.7 °F 66.4 °F 99% 29.53 in 0.5 mi NW 5.8 mph - N/A Fog Fog
9:58 PM 66.4 °F 66.0 °F 99% 29.56 in 0.8 mi North 8.1 mph - N/A   Overcast
10:13 PM 66.2 °F 66.2 °F 100% 29.55 in 1.0 mi NNW 4.6 mph - N/A   Overcast
10:28 PM 66.2 °F 66.2 °F 100% 29.55 in 2.0 mi NE 4.6 mph - N/A   Overcast
10:58 PM 66.7 °F 66.4 °F 99% 29.56 in 2.0 mi Calm Calm - N/A   Overcast
11:13 PM 68.0 °F 66.2 °F 94% 29.54 in 3.0 mi SE 2.3 mph - N/A   Overcast
11:58 PM 68.2 °F 67.8 °F 99% 29.55 in 5.0 mi SSE 8.1 mph - N/A   Overcast